N2XP-3 Weather Reports


time (UTC)temp
F
wind
direction
speed
knots
gust
knots
rain 1hr
in
rain 24hr
in
rain mn
in
humidity
%
barometer
mb
20260505221140 78 305 6.1 6.1 0.00 0.00 0.01 37 1005.6
20260505220640 78 259 4.3 8.7 0.00 0.00 0.01 36 1005.7
20260505220131 79 291 4.3 10.4 0.00 0.00 0.01 35 1005.6
20260505215626 79 186 6.1 6.1 0.00 0.00 0.01 35 1005.5
20260505215228 79 210 6.1 3.5 0.00 0.00 0.01 35 1005.5
20260505215128 79 210 6.1 3.5 0.00 0.00 0.01 35 1005.5
20260505214623 79 201 7.8 7.0 0.00 0.00 0.01 35 1005.5
20260505214122 79 283 4.3 1.7 0.00 0.00 0.01 35 1005.4
20260505213621 79 13 4.3 4.3 0.00 0.00 0.01 36 1005.5
20260505213116 79 231 7.8 8.7 0.00 0.00 0.01 35 1005.5
20260505212617 79 229 7.0 3.5 0.00 0.00 0.01 35 1005.4
20260505211613 80 346 3.5 1.7 0.00 0.00 0.01 34 1005.3
20260505210100 80 271 4.3 5.2 0.00 0.00 0.01 33 1005.0
20260505205651 81 235 4.3 10.4 0.00 0.00 0.01 33 1005.1
20260505205558 81 235 4.3 10.4 0.00 0.00 0.01 33 1005.1
20260505205059 81 290 6.1 7.0 0.00 0.00 0.01 33 1005.2
20260505204554 82 257 3.5 3.5 0.00 0.00 0.01 33 1005.0
20260505203556 82 260 4.3 3.5 0.00 0.00 0.01 34 1005.0
20260505203051 82 225 5.2 4.3 0.00 0.00 0.01 33 1005.1
20260505202553 82 271 4.3 3.5 0.00 0.00 0.01 33 1005.3
20260505202049 82 264 8.7 11.3 0.00 0.00 0.01 32 1005.1
20260505201923 83 246 5.2 2.6 0.00 0.00 0.01 32 1005.2
20260505201543 83 304 7.8 4.3 0.00 0.00 0.01 32 1005.2
20260505201044 83 246 5.2 2.6 0.00 0.00 0.01 32 1005.2
20260505194710 84 170 7.8 7.0 0.00 0.00 0.01 34 1005.3
20260505194534 84 170 7.8 7.0 0.00 0.00 0.01 34 1005.3
20260505194033 84 270 5.2 6.1 0.00 0.00 0.01 34 1005.3
20260505193534 84 243 5.2 5.2 0.00 0.00 0.01 34 1005.5
20260505193030 84 238 7.0 7.8 0.00 0.00 0.01 33 1005.5
20260505192527 84 222 7.8 2.6 0.00 0.00 0.01 32 1005.4
20260505191519 85 271 6.1 7.0 0.00 0.00 0.01 32 1005.7
20260505191019 85 281 5.2 5.2 0.00 0.00 0.01 34 1005.7
20260505190121 85 264 4.3 7.0 0.00 0.00 0.01 34 1005.8
20260505190015 85 264 4.3 7.0 0.00 0.00 0.01 34 1005.8
20260505185516 84 180 5.2 3.5 0.00 0.00 0.01 33 1005.8
20260505184509 84 260 6.1 2.6 0.00 0.00 0.01 32 1006.0
20260505183509 84 211 7.0 4.3 0.00 0.00 0.01 32 1006.0
20260505183007 85 215 3.5 2.6 0.00 0.00 0.01 32 1006.0
20260505182507 85 283 7.0 13.0 0.00 0.00 0.01 33 1006.3
20260505181501 85 218 9.6 4.3 0.00 0.00 0.01 33 1006.3
20260505181001 84 285 5.2 3.5 0.00 0.00 0.01 36 1006.2
20260505175956 84 359 3.5 2.6 0.00 0.00 0.01 37 1006.4
20260505174636 84 212 7.8 3.5 0.01 0.00 0.01 36 1006.6
20260505174452 84 314 7.8 5.2 0.01 0.00 0.01 37 1006.6
20260505173953 84 212 7.8 3.5 0.01 0.00 0.01 36 1006.6
20260505173610 85 260 6.1 6.1 0.01 0.00 0.01 37 1006.8
20260505173453 85 260 6.1 6.1 0.01 0.00 0.01 37 1006.8
20260505172950 85 285 5.2 4.3 0.01 0.00 0.01 37 1006.6
20260505172450 85 271 3.5 10.4 0.01 0.00 0.01 38 1006.6
20260505172253 85 200 4.3 5.2 0.01 0.00 0.01 38 1006.7
20260505171951 85 200 4.3 5.2 0.01 0.00 0.01 38 1006.7
20260505171447 85 224 5.2 6.1 0.01 0.00 0.01 39 1006.9
20260505170947 84 271 5.2 3.5 0.01 0.00 0.01 39 1006.9
20260505170448 84 269 4.3 0.9 0.01 0.00 0.01 39 1007.0
20260505170141 84 203 4.3 10.4 0.01 0.00 0.01 39 1007.1
20260505165944 84 203 4.3 10.4 0.01 0.00 0.01 39 1007.1
20260505164946 84 183 3.5 4.3 0.01 0.00 0.01 40 1007.1
20260505164717 84 345 6.1 1.7 0.00 0.00 0.01 41 1007.3
20260505164441 84 345 6.1 1.7 0.00 0.00 0.01 41 1007.3
20260505163942 84 290 4.3 5.2 0.00 0.00 0.01 41 1007.3
20260505163443 83 287 6.1 3.5 0.00 0.00 0.01 41 1007.3
20260505162147 82 252 3.5 7.0 0.00 0.00 0.01 42 1007.5
20260505161939 82 252 3.5 7.0 0.00 0.00 0.01 42 1007.5
20260505161435 82 212 5.2 5.2 0.00 0.00 0.01 43 1007.5
20260505161144 81 281 3.5 4.3 0.00 0.00 0.01 43 1007.5
20260505160935 81 281 3.5 4.3 0.00 0.00 0.01 43 1007.5
20260505152642 80 235 2.6 3.5 0.00 0.00 0.00 45 1008.0
20260505152413 80 235 2.6 3.5 0.00 0.00 0.00 45 1008.0
20260505151623 80 297 4.3 6.1 0.00 0.00 0.00 44 1008.1
20260505151410 80 297 4.3 6.1 0.00 0.00 0.00 44 1008.1
20260505151135 80 245 2.6 4.3 0.00 0.00 0.00 44 1008.2
20260505150910 80 245 2.6 4.3 0.00 0.00 0.00 44 1008.2
20260505150640 80 236 5.2 3.5 0.00 0.00 0.00 44 1008.2
20260505150407 80 236 5.2 3.5 0.00 0.00 0.00 44 1008.2
20260505140348 83 238 1.7 1.7 0.00 0.00 0.00 41 1008.8
20260505124822 77 297 3.5 5.2 0.00 0.00 0.00 52 1008.7
20260505124317 78 256 4.3 2.6 0.00 0.00 0.00 50 1008.7
20260505123818 79 243 3.5 2.6 0.00 0.00 0.00 49 1008.7
20260505123318 79 233 2.6 1.7 0.00 0.00 0.00 50 1008.5
20260505122816 78 269 0.9 3.5 0.00 0.00 0.00 53 1008.3
20260505122315 76 271 3.5 3.5 0.00 0.00 0.00 57 1008.4
20260505121816 73 245 4.3 1.7 0.00 0.00 0.00 61 1008.2
20260505121314 69 257 2.6 3.5 0.00 0.00 0.00 67 1008.4
20260505120914 67 246 3.5 2.6 0.00 0.00 0.00 71 1008.3
20260505120814 67 246 3.5 2.6 0.00 0.00 0.00 71 1008.3
20260505120425 68 288 2.6 3.5 0.00 0.00 0.00 68 1008.4
20260505120315 68 288 2.6 3.5 0.00 0.00 0.00 68 1008.4
20260505115311 68 218 1.7 0.9 0.00 0.00 0.00 71 1008.5
20260505114812 67 224 1.7 1.7 0.00 0.00 0.00 73 1008.6
20260505114306 66 284 3.5 1.7 0.00 0.00 0.00 75 1008.5
20260505113807 67 307 2.6 6.1 0.00 0.00 0.00 75 1008.6
20260505113305 66 235 2.6 2.6 0.00 0.00 0.00 79 1008.7
20260505112304 62 281 0.0 0.0 0.00 0.00 0.00 88 1008.6
20260505111758 59 281 0.0 0.0 0.00 0.00 0.00 94 1008.7
20260505111331 55 298 0.0 0.0 0.00 0.00 0.00 98 1008.6
20260505111246 55 298 0.0 0.0 0.00 0.00 0.00 98 1008.6
20260505110747 53 218 0.0 0.0 0.00 0.00 0.00 95 1008.6
20260505110245 52 218 0.0 0.0 0.00 0.00 0.00 95 1008.4
20260505101723 51 218 0.0 0.0 0.00 0.00 0.00 92 1008.3
20260505101218 51 218 0.0 0.0 0.00 0.00 0.00 92 1008.5
20260505100716 51 218 0.0 0.0 0.00 0.00 0.00 92 1008.5
20260505095651 50 201 0.9 0.0 0.00 0.00 0.00 91 1008.4
20260505095150 50 224 0.0 0.0 0.00 0.00 0.00 91 1008.4
20260505094650 49 224 0.0 0.0 0.00 0.00 0.00 91 1008.3
20260505094141 49 291 0.0 0.0 0.00 0.00 0.00 91 1008.3
20260505093142 49 291 0.0 0.0 0.00 0.00 0.00 90 1008.1
20260505092139 49 291 0.0 0.0 0.00 0.00 0.00 90 1008.0
20260505091638 49 291 0.0 0.0 0.00 0.00 0.00 90 1007.8
20260505091133 49 291 0.0 0.0 0.00 0.00 0.00 89 1007.7
20260505090134 49 291 0.0 0.0 0.00 0.00 0.00 89 1007.7
20260505085628 49 291 0.0 0.0 0.00 0.00 0.00 89 1007.6
20260505085312 49 291 0.0 0.0 0.00 0.00 0.00 88 1007.7
20260505085129 49 291 0.0 0.0 0.00 0.00 0.00 88 1007.7
20260505084629 49 291 0.0 0.0 0.00 0.00 0.00 88 1007.5
20260505084123 49 291 0.0 0.0 0.00 0.00 0.00 88 1007.5
20260505083621 49 291 0.0 0.0 0.00 0.00 0.00 88 1007.5
20260505082618 49 291 0.0 0.0 0.00 0.00 0.00 87 1007.6
20260505082112 49 291 0.0 0.0 0.00 0.00 0.00 87 1007.6
20260505081609 50 205 0.0 0.0 0.00 0.00 0.00 87 1007.6
20260505081101 50 280 0.0 0.0 0.00 0.00 0.00 86 1007.6
20260505080601 49 340 0.0 0.0 0.00 0.00 0.00 86 1007.6
20260505074555 50 340 0.0 0.0 0.00 0.00 0.00 85 1007.5
20260505074042 50 340 0.0 0.0 0.00 0.00 0.00 85 1007.5
20260505073536 50 340 0.0 0.0 0.00 0.00 0.00 85 1007.5
20260505072025 50 340 0.0 0.0 0.00 0.00 0.00 85 1007.5
20260505071525 50 340 0.0 0.0 0.00 0.00 0.00 84 1007.5
20260505071019 50 340 0.0 0.0 0.00 0.00 0.00 84 1007.5
20260505070924 50 340 0.0 0.0 0.00 0.00 0.00 84 1007.5
20260505070520 50 340 0.0 0.0 0.00 0.00 0.00 84 1007.5
20260505070020 49 340 0.0 0.0 0.00 0.00 0.00 84 1007.5
20260505065517 49 340 0.0 0.0 0.00 0.00 0.00 84 1007.5
20260505065018 49 340 0.0 0.0 0.00 0.00 0.00 83 1007.6
20260505064518 50 340 0.0 0.0 0.00 0.00 0.00 83 1007.7
20260505064041 50 340 0.0 0.0 0.00 0.00 0.00 82 1007.6
20260505064009 50 340 0.0 0.0 0.00 0.00 0.00 82 1007.6
20260505063509 50 340 0.0 0.0 0.00 0.00 0.00 82 1007.6
20260505063009 50 340 0.0 0.0 0.00 0.00 0.00 82 1007.6
20260505062000 51 340 0.0 0.0 0.00 0.00 0.00 81 1007.6
20260505061501 51 340 0.0 0.0 0.00 0.00 0.00 81 1007.7
20260505060958 51 340 0.0 0.0 0.00 0.00 0.00 81 1007.7
20260505060458 51 340 0.0 0.0 0.00 0.00 0.00 81 1007.8
20260505055454 51 340 0.0 0.0 0.00 0.00 0.00 80 1007.7
20260505054954 51 340 0.0 0.0 0.00 0.00 0.00 80 1007.7
20260505054528 51 340 0.0 0.0 0.00 0.00 0.00 80 1007.8
20260505054443 51 340 0.0 0.0 0.00 0.00 0.00 80 1007.8
20260505053441 51 328 0.9 0.0 0.00 0.00 0.00 80 1007.8
20260505052940 51 291 0.0 0.0 0.00 0.00 0.00 80 1007.8
20260505052540 51 316 0.0 0.9 0.00 0.00 0.00 80 1007.8
20260505052435 51 316 0.0 0.9 0.00 0.00 0.00 80 1007.8
20260505051934 51 276 0.0 0.0 0.00 0.00 0.00 80 1007.8
20260505051434 51 276 0.0 0.0 0.00 0.00 0.00 79 1007.8
20260505051035 51 256 0.9 0.0 0.00 0.00 0.00 79 1007.9
20260505050929 51 256 0.9 0.0 0.00 0.00 0.00 79 1007.9
20260505041359 52 281 0.0 0.0 0.00 0.00 0.00 76 1007.9
20260505040849 52 281 0.0 0.0 0.00 0.00 0.00 76 1007.9
20260505035841 52 281 0.0 0.0 0.00 0.00 0.00 76 1007.9
20260505035337 52 281 0.0 0.0 0.00 0.00 0.00 75 1007.9
20260505035223 52 281 0.0 0.0 0.00 0.00 0.00 75 1007.9
20260505034836 52 281 0.0 0.0 0.00 0.00 0.00 75 1007.9
20260505034336 52 281 0.0 0.0 0.00 0.00 0.00 75 1007.9
20260505033828 52 281 0.0 0.0 0.00 0.00 0.00 75 1007.9
20260505033329 53 281 0.0 0.0 0.00 0.00 0.00 74 1008.0
20260505032829 53 281 0.0 0.0 0.00 0.00 0.00 74 1008.1
20260505032325 53 281 0.0 0.0 0.00 0.00 0.00 74 1008.2
20260505031826 53 281 0.0 0.0 0.00 0.00 0.00 74 1008.2
20260505031326 53 281 0.0 0.0 0.00 0.00 0.00 73 1008.1
20260505030822 53 281 0.0 0.0 0.00 0.00 0.00 73 1008.1
20260505030320 53 281 0.0 0.0 0.00 0.00 0.00 73 1008.1
20260505025821 53 281 0.0 0.0 0.00 0.00 0.00 74 1008.1
20260505025316 53 281 0.0 0.0 0.00 0.00 0.00 73 1008.2
20260505024817 53 281 0.0 0.0 0.00 0.00 0.00 73 1008.2
20260505024318 53 281 0.0 0.0 0.00 0.00 0.00 72 1008.2
20260505023815 54 281 0.0 0.0 0.00 0.00 0.00 72 1008.2
20260505023315 54 281 0.0 0.0 0.00 0.00 0.00 71 1008.2
20260505022816 54 281 0.0 0.0 0.00 0.00 0.00 70 1008.2
20260505022308 54 281 0.0 0.0 0.00 0.00 0.00 69 1008.3
20260505021809 54 201 0.0 0.0 0.00 0.00 0.00 69 1008.2
20260505021309 55 201 0.0 0.0 0.00 0.00 0.00 69 1008.2
20260505020848 55 201 0.0 0.0 0.00 0.00 0.00 68 1008.3
20260505020803 55 201 0.0 0.0 0.00 0.00 0.00 68 1008.3
20260505020304 55 201 0.0 0.0 0.00 0.00 0.00 67 1008.2
20260505015805 55 201 0.0 0.0 0.00 0.00 0.00 67 1008.2
20260505015256 56 201 0.0 0.0 0.00 0.00 0.00 67 1008.2
20260505014257 56 201 0.0 0.0 0.00 0.00 0.00 67 1008.2
20260505013753 56 201 0.0 0.0 0.00 0.00 0.00 66 1008.1
20260505013250 56 201 0.0 0.0 0.00 0.00 0.00 65 1008.1
20260505012243 57 201 0.0 0.0 0.00 0.00 0.00 64 1008.0
20260505011744 57 201 0.0 0.0 0.00 0.00 0.00 64 1007.9
20260505011322 57 201 0.0 0.0 0.00 0.00 0.00 64 1008.0
20260505011242 57 201 0.0 0.0 0.00 0.00 0.00 64 1008.0
20260505010739 57 201 0.0 0.0 0.00 0.00 0.00 63 1007.8
20260505010321 58 201 0.0 0.0 0.00 0.00 0.00 62 1007.8
20260505010239 58 201 0.0 0.0 0.00 0.00 0.00 62 1007.8
20260505005738 58 201 0.0 0.0 0.00 0.00 0.00 61 1007.7
20260505005231 58 201 0.0 0.0 0.00 0.00 0.00 61 1007.7
20260505004731 59 201 0.0 0.0 0.00 0.00 0.00 60 1007.7
20260505004231 59 201 0.0 0.0 0.00 0.00 0.00 60 1007.7
20260505003727 59 201 0.0 0.0 0.00 0.00 0.00 60 1007.6
20260505002304 60 201 0.0 0.0 0.00 0.00 0.00 58 1007.4
20260505002217 60 201 0.0 0.0 0.00 0.00 0.00 58 1007.4
20260505001718 61 201 0.0 0.0 0.00 0.00 0.00 57 1007.4
20260505001213 61 201 0.9 0.0 0.00 0.00 0.00 56 1007.4
20260504235705 62 229 2.6 0.9 0.00 0.00 0.00 54 1007.0
20260504235200 63 321 0.9 0.9 0.00 0.00 0.00 53 1007.0
20260504234756 63 170 0.9 0.0 0.00 0.00 0.00 52 1006.9
20260504234700 63 170 0.9 0.0 0.00 0.00 0.00 52 1006.9
20260504233652 63 232 0.9 5.2 0.00 0.00 0.00 51 1006.8
20260504233150 64 228 2.6 1.7 0.00 0.00 0.00 51 1006.7
20260504232651 64 205 2.6 0.0 0.00 0.00 0.00 51 1006.7
20260504232147 65 304 0.9 0.9 0.00 0.00 0.00 50 1006.6
20260504231645 65 233 0.9 1.7 0.00 0.00 0.00 49 1006.6
20260504231145 65 195 2.6 0.9 0.00 0.00 0.00 48 1006.5
20260504230640 66 271 1.7 3.5 0.00 0.00 0.00 47 1006.4
20260504230140 66 300 2.6 5.2 0.00 0.00 0.00 47 1006.4
20260504225638 67 208 2.6 1.7 0.00 0.00 0.00 46 1006.4
20260504224636 67 201 2.6 0.0 0.00 0.00 0.00 45 1006.3